Date String (YYYY-MM-DD hh:mm:ss) UTC,Instrument flags,Ambient pressure (hPa),Sample flow (lpm),Bypass flow (lpm),Sample temperature (°C),Ambient temperature (°C),ASC tube jacket temperature (°C),LED temperature (°C),Box temperature (°C),Sample RH (%),Span deviation,Mass concentration (μg/m³),Mass concentration (μg/m³),Mass concentration (μg/m³)
DateTimeUTC,F1_M11,P_M11,Q1_M11,Q2_M11,T1_M11,T2_M11,T3_M11,T4_M11,T5_M11,U1_M11,ZSPAN_M11,X0_M11,X2_M11,X1_M11
2022-08-31 06:00:00,,0831.6,5.00,0.00,29.7,27.2,00.0,38.4,31.5,21.1,0000.0,0016.54,0006.32,0005.37
2022-08-31 06:01:00,,0831.7,5.01,0.00,29.7,27.5,00.0,38.4,31.4,21.1,0000.0,0016.27,0006.33,0005.38
2022-08-31 06:02:00,,0831.7,5.00,0.00,29.7,27.8,00.0,38.4,31.4,21.2,0000.0,0016.36,0006.37,0005.39
2022-08-31 06:03:00,,0831.7,5.00,0.00,29.7,28.0,00.0,38.4,31.5,21.1,0000.0,0016.32,0006.40,0005.39
2022-08-31 06:04:00,,0831.7,5.01,0.00,29.7,28.2,00.0,38.4,31.5,21.1,0000.0,0016.76,0006.45,0005.39
2022-08-31 06:05:00,,0831.7,5.01,0.00,29.7,28.3,00.0,38.4,31.6,21.1,0000.0,0016.14,0006.48,0005.40
2022-08-31 06:06:00,,0831.7,4.98,0.00,29.7,28.5,00.0,38.4,31.6,20.9,0000.0,0016.08,0006.50,0005.41
2022-08-31 06:07:00,,0831.7,5.00,0.00,29.7,28.6,00.0,38.4,31.6,20.9,0000.0,0015.97,0006.49,0005.40
2022-08-31 06:08:00,,0831.7,5.01,0.00,29.8,28.7,00.0,38.5,31.7,20.8,0000.0,0015.59,0006.51,0005.40
2022-08-31 06:09:00,,0831.7,4.99,0.00,29.8,28.7,00.0,38.5,31.7,20.8,0000.0,0015.27,0006.54,0005.40
2022-08-31 06:10:00,,0831.7,5.00,0.00,29.8,28.8,00.0,38.5,31.7,20.8,0000.0,0014.84,0006.55,0005.40
2022-08-31 06:11:00,,0831.7,5.01,0.00,29.9,28.9,00.0,38.5,31.7,20.8,0000.0,0016.40,0006.55,0005.42
2022-08-31 06:12:00,,0831.7,5.00,0.00,29.9,28.6,00.0,38.5,31.8,20.9,0000.0,0016.78,0006.58,0005.43
2022-08-31 06:13:00,,0831.7,4.99,0.00,29.9,27.3,00.0,38.5,31.7,20.9,0000.0,0017.37,0006.64,0005.44
2022-08-31 06:14:00,,0831.7,5.01,0.00,29.8,26.9,00.0,38.5,31.6,21.0,0000.0,0018.07,0006.64,0005.45
2022-08-31 06:15:00,,0831.7,5.00,0.00,29.8,27.1,00.0,38.4,31.5,21.3,0000.0,0017.85,0006.63,0005.45
2022-08-31 06:16:00,,0831.7,4.99,0.00,29.7,27.3,00.0,38.4,31.4,21.5,0000.0,0017.94,0006.61,0005.45
2022-08-31 06:17:00,,0831.7,5.01,0.00,29.7,27.6,00.0,38.4,31.4,21.6,0000.0,0017.66,0006.63,0005.46
2022-08-31 06:18:00,,0831.7,5.00,0.00,29.7,27.9,00.0,38.4,31.4,21.5,0000.0,0018.09,0006.67,0005.48
2022-08-31 06:19:00,,0831.7,5.00,0.00,29.7,28.1,00.0,38.4,31.5,21.2,0000.0,0018.58,0006.65,0005.50
2022-08-31 06:20:00,,0831.7,5.00,0.00,29.7,28.2,00.0,38.4,31.5,21.1,0000.0,0018.83,0006.62,0005.50
2022-08-31 06:21:00,,0831.7,5.00,0.00,29.7,28.4,00.0,38.4,31.6,21.0,0000.0,0018.28,0006.64,0005.50
2022-08-31 06:22:00,,0831.7,4.98,0.00,29.7,28.5,00.0,38.4,31.6,20.8,0000.0,0016.53,0006.66,0005.51
2022-08-31 06:23:00,,0831.7,5.00,0.00,29.8,28.6,00.0,38.4,31.6,20.7,0000.0,0016.50,0006.62,0005.49
2022-08-31 06:24:00,,0831.7,5.00,0.00,29.8,28.7,00.0,38.4,31.7,20.7,0000.0,0016.09,0006.55,0005.48
2022-08-31 06:25:00,,0831.7,4.98,0.00,29.8,28.8,00.0,38.5,31.7,20.6,0000.0,0015.88,0006.54,0005.48
2022-08-31 06:26:00,,0831.8,5.00,0.00,29.8,28.8,00.0,38.5,31.7,20.6,0000.0,0015.99,0006.59,0005.49
2022-08-31 06:27:00,,0831.7,5.01,0.00,29.9,28.9,00.0,38.5,31.7,20.5,0000.0,0015.96,0006.58,0005.49
2022-08-31 06:28:00,,0831.7,5.00,0.00,29.9,28.9,00.0,38.5,31.8,20.4,0000.0,0016.30,0006.58,0005.46
2022-08-31 06:29:00,,0831.7,4.98,0.00,29.9,28.7,00.0,38.5,31.8,20.4,0000.0,0015.76,0006.55,0005.45
2022-08-31 06:30:00,,0831.7,5.00,0.00,29.9,27.4,00.0,38.5,31.7,20.4,0000.0,0015.12,0006.55,0005.45
2022-08-31 06:31:00,,0831.7,5.01,0.00,29.9,26.9,00.0,38.5,31.6,20.3,0000.0,0014.90,0006.54,0005.46
2022-08-31 06:32:00,,0831.7,5.00,0.00,29.8,27.1,00.0,38.4,31.5,20.4,0000.0,0015.27,0006.50,0005.46
2022-08-31 06:33:00,,0831.8,4.99,0.00,29.7,27.4,00.0,38.4,31.4,20.5,0000.0,0015.75,0006.48,0005.46
2022-08-31 06:34:00,,0831.7,5.01,0.00,29.7,27.6,00.0,38.4,31.4,20.6,0000.0,0016.24,0006.50,0005.46
2022-08-31 06:35:00,,0831.7,5.00,0.00,29.7,27.9,00.0,38.4,31.5,20.6,0000.0,0016.20,0006.52,0005.46
2022-08-31 06:36:00,,0831.7,5.00,0.00,29.7,28.1,00.0,38.4,31.5,20.6,0000.0,0015.85,0006.52,0005.46
2022-08-31 06:37:00,,0831.7,5.00,0.00,29.7,28.2,00.0,38.4,31.5,20.6,0000.0,0015.08,0006.46,0005.45
2022-08-31 06:38:00,,0831.7,5.00,0.00,29.7,28.4,00.0,38.4,31.6,20.5,0000.0,0015.13,0006.49,0005.45
2022-08-31 06:39:00,,0831.7,5.00,0.00,29.7,28.5,00.0,38.4,31.6,20.6,0000.0,0015.25,0006.48,0005.47
2022-08-31 06:40:00,,0831.7,4.98,0.00,29.8,28.6,00.0,38.4,31.6,20.6,0000.0,0015.06,0006.49,0005.49
2022-08-31 06:41:00,,0831.7,5.00,0.00,29.8,28.7,00.0,38.5,31.7,20.6,0000.0,0015.14,0006.50,0005.47
2022-08-31 06:42:00,,0831.7,5.00,0.00,29.8,28.7,00.0,38.5,31.7,20.5,0000.0,0015.65,0006.50,0005.47
2022-08-31 06:43:00,,0831.7,5.00,0.00,29.8,28.8,00.0,38.5,31.7,20.4,0000.0,0015.69,0006.50,0005.45
2022-08-31 06:44:00,,0831.7,5.01,0.00,29.9,28.9,00.0,38.5,31.8,20.3,0000.0,0016.03,0006.51,0005.45
2022-08-31 06:45:00,,0831.7,4.98,0.00,29.9,28.9,00.0,38.5,31.7,20.3,0000.0,0014.95,0006.48,0005.45
2022-08-31 06:46:00,,0831.7,5.00,0.00,29.9,29.0,00.0,38.6,31.8,20.3,0000.0,0014.89,0006.48,0005.46
2022-08-31 06:47:00,,0831.7,4.99,0.00,29.9,28.1,00.0,38.6,31.8,20.2,0000.0,0014.88,0006.51,0005.46
2022-08-31 06:48:00,,0831.7,5.00,0.00,29.9,27.0,00.0,38.5,31.7,20.2,0000.0,0015.33,0006.55,0005.47
2022-08-31 06:49:00,,0831.7,4.99,0.00,29.8,26.9,00.0,38.5,31.6,20.3,0000.0,0015.42,0006.53,0005.47
2022-08-31 06:50:00,,0831.7,5.01,0.00,29.8,27.1,00.0,38.5,31.4,20.4,0000.0,0015.48,0006.52,0005.46
2022-08-31 06:51:00,,0831.7,5.01,0.00,29.7,27.4,00.0,38.4,31.4,20.5,0000.0,0015.63,0006.55,0005.45
2022-08-31 06:52:00,,0831.7,4.99,0.00,29.7,27.7,00.0,38.4,31.4,20.6,0000.0,0015.50,0006.53,0005.45
2022-08-31 06:53:00,,0831.7,5.00,0.00,29.7,27.9,00.0,38.4,31.4,20.5,0000.0,0015.34,0006.52,0005.44
2022-08-31 06:54:00,,0831.7,5.00,0.00,29.7,28.1,00.0,38.4,31.5,20.5,0000.0,0015.38,0006.55,0005.46
2022-08-31 06:55:00,,0831.7,5.01,0.00,29.7,28.3,00.0,38.4,31.5,20.7,0000.0,0014.40,0006.52,0005.46
2022-08-31 06:56:00,,0831.7,5.01,0.00,29.7,28.4,00.0,38.4,31.6,20.5,0000.0,0014.88,0006.51,0005.44
2022-08-31 06:57:00,,0831.7,5.01,0.00,29.7,28.5,00.0,38.4,31.6,20.5,0000.0,0015.53,0006.49,0005.44
2022-08-31 06:58:00,,0831.7,4.98,0.00,29.8,28.6,00.0,38.5,31.6,20.5,0000.0,0016.48,0006.49,0005.42
2022-08-31 06:59:00,,0831.7,5.00,0.00,29.8,28.7,00.0,38.5,31.7,20.4,0000.0,0017.02,0006.47,0005.41
